Location: Rogers
(33.5418°N, 96.2475°W)
Time: 18:40:21
(UTC+00:00)

Envisat - Visible Passes

Search period start: 23 June 2024 00:00
Search period end: 03 July 2024 00:00
Orbit: 762 x 764 km, 98.3° (Epoch: 23 June)

Date Brightness Start Highest point End Pass type
(mag) Time Alt. Az. Time Alt. Az. Time Alt. Az.
23 Jun 4.7 08:48:54 10° NE 08:53:08 26° E 08:56:17 15° SE visible
23 Jun 4.1 10:27:41 10° NNW 10:32:00 29° WNW 10:36:18 10° SW visible
24 Jun 5.7 08:14:58 10° E 08:15:28 10° E 08:15:58 10° E visible
24 Jun 3.0 09:49:47 10° N 09:54:50 70° WNW 09:58:35 18° SSW visible
25 Jun 3.8 09:12:35 10° NNE 09:17:28 47° E 09:20:45 20° SSE visible
26 Jun 5.1 08:36:19 10° NE 08:39:55 19° E 08:42:55 12° SE visible
26 Jun 3.7 10:14:16 10° N 10:18:57 38° WNW 10:23:04 13° SW visible
27 Jun 3.0 09:36:37 10° NNE 09:41:43 86° ESE 09:45:12 21° SSW visible
28 Jun 4.3 08:59:40 10° NNE 09:04:17 35° E 09:07:22 18° SSE visible
28 Jun 4.4 10:39:08 10° NNW 10:42:59 22° WNW 10:46:50 10° WSW visible
29 Jun 5.4 08:24:03 10° ENE 08:26:40 14° E 08:29:17 10° SE visible
29 Jun 3.2 10:00:57 10° N 10:05:52 52° WNW 10:09:40 17° SW visible
30 Jun 3.3 09:23:32 10° NNE 09:28:34 63° ESE 09:31:49 22° S visible
01 Jul 4.7 08:46:53 10° NE 08:51:04 25° E 08:53:58 16° SE visible
01 Jul 4.0 10:25:36 10° N 10:29:57 30° WNW 10:34:07 11° SW visible
02 Jul 3.0 09:47:42 10° N 09:52:46 72° WNW 09:56:16 20° SSW visible
